EW5824 Weather Reports


time (UTC)temp
F
wind
direction
speed
knots
gust
knots
rain 1hr
in
rain 24hr
in
rain mn
in
humidity
%
barometer
mb
20260507172324 60 213 3.5 9.6 0.00 0.52 0.00 39 1016.9
20260507171828 59 227 6.1 9.6 0.00 0.52 0.00 38 1016.9
20260507171350 59 358 4.3 11.3 0.00 0.52 0.00 38 1017.1
20260507170829 60 358 6.1 12.2 0.00 0.52 0.00 37 1017.1
20260507170331 60 358 6.1 12.2 0.00 0.52 0.00 37 1017.1
20260507165813 60 358 3.5 10.4 0.00 0.59 0.00 39 1017.1
20260507165334 59 358 6.1 10.4 0.00 0.59 0.00 39 1017.3
20260507164813 59 358 6.1 12.2 0.00 0.59 0.00 39 1017.3
20260507164314 59 358 5.2 10.4 0.00 0.59 0.00 39 1017.3
20260507163815 58 231 3.5 10.4 0.00 0.59 0.00 40 1017.4
20260507163335 58 218 6.1 9.6 0.00 0.59 0.00 39 1017.4
20260507162817 58 234 6.1 8.7 0.00 0.59 0.00 40 1017.4
20260507162339 57 200 5.2 9.6 0.00 0.59 0.00 40 1017.5
20260507161819 57 358 4.3 10.4 0.00 0.59 0.00 41 1017.5
20260507161320 57 358 5.2 10.4 0.00 0.59 0.00 41 1017.5
20260507160314 55 228 5.2 9.6 0.00 0.59 0.00 41 1017.7
20260507155814 55 213 5.2 9.6 0.00 0.60 0.00 41 1017.7
20260507155316 55 358 4.3 8.7 0.00 0.60 0.00 42 1017.7
20260507154817 55 190 3.5 7.8 0.00 0.60 0.00 43 1017.8
20260507154338 54 235 5.2 9.6 0.00 0.60 0.00 42 1017.8
20260507153818 54 234 5.2 9.6 0.00 0.60 0.00 42 1017.9
20260507153317 54 238 4.3 9.6 0.00 0.60 0.00 43 1017.8
20260507152817 53 200 5.2 9.6 0.00 0.60 0.00 42 1017.8
20260507152319 53 219 5.2 9.6 0.00 0.60 0.00 43 1017.9
20260507151819 53 219 4.3 11.3 0.00 0.60 0.00 43 1017.9
20260507151319 52 222 6.1 11.3 0.00 0.60 0.00 43 1017.9
20260507150821 52 358 5.2 11.3 0.00 0.60 0.00 43 1017.9
20260507150321 51 200 5.2 9.6 0.00 0.60 0.00 44 1017.9
20260507145823 51 190 4.3 8.7 0.00 0.60 0.00 44 1018.0
20260507145324 50 358 5.2 10.4 0.00 0.60 0.00 44 1017.9
20260507144827 50 358 6.1 10.4 0.00 0.60 0.00 45 1017.9
20260507144327 50 358 5.2 11.3 0.00 0.60 0.00 45 1018.0
20260507143847 49 207 5.2 10.4 0.00 0.60 0.00 45 1017.9
20260507143327 49 239 6.1 10.4 0.00 0.60 0.00 45 1018.0
20260507142849 48 215 6.1 12.2 0.00 0.60 0.00 46 1018.0
20260507142330 48 229 6.1 13.0 0.00 0.60 0.00 46 1017.9
20260507141831 48 224 6.1 13.0 0.00 0.60 0.00 46 1017.8
20260507141313 47 236 7.8 11.3 0.00 0.60 0.00 47 1017.8
20260507140814 47 206 5.2 12.2 0.00 0.60 0.00 47 1017.8
20260507140317 46 214 6.1 12.2 0.00 0.60 0.00 48 1017.9
20260507135818 46 200 5.2 9.6 0.00 0.60 0.00 49 1018.0
20260507135318 46 232 5.2 9.6 0.00 0.60 0.00 49 1018.0
20260507134817 45 206 7.0 12.2 0.00 0.60 0.00 50 1018.0
20260507134319 45 244 6.1 12.2 0.00 0.60 0.00 50 1018.0
20260507133819 44 205 4.3 9.6 0.00 0.60 0.00 50 1017.9
20260507133320 44 215 5.2 9.6 0.00 0.60 0.00 51 1017.8
20260507132823 44 216 6.1 9.6 0.00 0.60 0.00 51 1017.8
20260507132324 43 212 4.3 10.4 0.00 0.60 0.00 51 1017.8
20260507131817 43 210 5.2 10.4 0.00 0.60 0.00 51 1017.7
20260507131317 42 358 4.3 8.7 0.00 0.60 0.00 52 1017.8
20260507130818 42 215 4.3 8.7 0.00 0.60 0.00 53 1017.7
20260507130318 42 203 5.2 9.6 0.00 0.60 0.00 53 1017.7
20260507125839 41 358 4.3 11.3 0.00 0.60 0.00 54 1017.6
20260507125339 41 358 6.1 11.3 0.00 0.60 0.00 55 1017.5
20260507124821 40 358 4.3 8.7 0.00 0.60 0.00 55 1017.5
20260507124324 40 358 4.3 9.6 0.00 0.60 0.00 55 1017.5
20260507123846 40 358 5.2 9.6 0.00 0.60 0.00 55 1017.4
20260507123327 40 358 4.3 11.3 0.00 0.60 0.00 56 1017.4
20260507122826 39 358 6.1 11.3 0.00 0.60 0.00 55 1017.3
20260507122328 39 358 4.3 9.6 0.00 0.60 0.00 56 1017.4
20260507121831 39 358 3.5 7.0 0.00 0.60 0.00 56 1017.3
20260507121313 39 202 3.5 7.0 0.00 0.60 0.00 56 1017.4
20260507120813 39 180 5.2 8.7 0.00 0.60 0.00 56 1017.3
20260507120313 39 214 5.2 8.7 0.00 0.60 0.00 56 1017.3
20260507115813 39 200 5.2 8.7 0.00 0.60 0.00 56 1017.4
20260507115315 39 198 5.2 7.8 0.00 0.60 0.00 56 1017.3
20260507114814 39 198 5.2 10.4 0.00 0.60 0.00 56 1017.3
20260507114316 39 205 5.2 10.4 0.00 0.60 0.00 56 1017.3
20260507113816 39 192 6.1 9.6 0.00 0.60 0.00 56 1017.1
20260507113319 39 189 5.2 8.7 0.00 0.60 0.00 56 1017.1
20260507112821 39 205 4.3 8.7 0.00 0.60 0.00 56 1017.1
20260507111350 38 223 5.2 8.7 0.00 0.60 0.00 57 1017.0
20260507110831 38 179 5.2 8.7 0.00 0.60 0.00 58 1017.0
20260507110330 38 194 6.1 8.7 0.00 0.60 0.00 58 1017.1
20260507105813 38 186 5.2 8.7 0.00 0.60 0.00 59 1017.1
20260507105314 38 205 5.2 8.7 0.00 0.60 0.00 60 1017.0
20260507104815 38 162 5.2 7.8 0.00 0.60 0.00 60 1017.1
20260507104317 38 206 4.3 9.6 0.00 0.60 0.00 60 1017.2
20260507103819 38 217 5.2 9.6 0.00 0.60 0.00 60 1017.1
20260507103321 38 186 4.3 7.8 0.00 0.60 0.00 61 1017.2
20260507102822 38 200 4.3 7.8 0.00 0.60 0.00 60 1017.3
20260507102325 38 217 5.2 8.7 0.00 0.60 0.00 60 1017.3
20260507101826 38 207 4.3 7.8 0.00 0.60 0.00 59 1017.2
20260507101328 38 186 4.3 8.7 0.00 0.60 0.00 59 1017.4
20260507100830 38 196 5.2 8.7 0.00 0.60 0.00 60 1017.4
20260507100312 38 168 4.3 9.6 0.00 0.60 0.00 61 1017.4
20260507095814 38 207 5.2 8.7 0.00 0.60 0.00 62 1017.4
20260507095316 37 205 4.3 8.7 0.00 0.60 0.00 62 1017.5
20260507094817 37 224 6.1 8.7 0.00 0.60 0.00 63 1017.5
20260507094338 37 209 4.3 7.8 0.00 0.60 0.00 65 1017.5
20260507093839 37 215 5.2 8.7 0.00 0.60 0.00 65 1017.6
20260507093320 36 205 5.2 8.7 0.00 0.60 0.00 66 1017.6
20260507092822 36 198 4.3 8.7 0.00 0.60 0.00 67 1017.5
20260507092325 36 213 4.3 7.8 0.00 0.60 0.00 67 1017.7
20260507091826 36 192 4.3 8.7 0.00 0.60 0.00 68 1017.6
20260507091328 36 221 4.3 8.7 0.00 0.60 0.00 69 1017.5
20260507090828 36 202 5.2 8.7 0.00 0.60 0.00 69 1017.5
20260507090331 36 201 4.3 7.8 0.00 0.60 0.00 70 1017.5
20260507085833 36 199 5.2 8.7 0.00 0.60 0.00 70 1017.5
20260507085313 36 197 4.3 8.7 0.00 0.60 0.00 71 1017.5
20260507084815 36 207 4.3 7.8 0.00 0.60 0.00 72 1017.4
20260507084316 35 198 4.3 7.8 0.00 0.60 0.00 72 1017.6
20260507083816 35 188 4.3 9.6 0.00 0.60 0.00 73 1017.6
20260507083339 35 202 4.3 9.6 0.00 0.60 0.00 74 1017.5
20260507082819 35 218 3.5 7.0 0.00 0.60 0.00 75 1017.7
20260507082321 35 213 4.3 7.8 0.00 0.60 0.00 75 1017.8
20260507081842 35 202 3.5 7.0 0.00 0.60 0.00 76 1017.9
20260507081322 35 205 3.5 7.0 0.00 0.60 0.00 76 1018.0
20260507080824 35 225 3.5 7.8 0.00 0.60 0.00 76 1018.0
20260507080323 35 184 4.3 8.7 0.00 0.60 0.00 77 1017.9
20260507075824 35 198 5.2 10.4 0.00 0.60 0.00 78 1018.2
20260507075342 35 195 4.3 10.4 0.00 0.60 0.00 78 1018.2
20260507074824 35 196 4.3 7.8 0.00 0.60 0.00 78 1018.2
20260507074326 35 207 4.3 6.1 0.00 0.60 0.00 79 1018.3
20260507073814 35 201 3.5 7.0 0.00 0.60 0.00 79 1018.2
20260507073315 35 201 3.5 7.0 0.00 0.60 0.00 80 1018.4
20260507072817 35 198 3.5 7.0 0.00 0.60 0.00 80 1018.4
20260507072318 35 202 4.3 7.8 0.00 0.60 0.00 80 1018.5
20260507071821 35 206 4.3 7.8 0.00 0.60 0.00 80 1018.4
20260507071324 35 201 3.5 7.0 0.00 0.60 0.00 80 1018.4
20260507070826 35 203 3.5 8.7 0.00 0.60 0.00 80 1018.5
20260507070327 35 204 4.3 8.7 0.00 0.60 0.00 81 1018.5
20260507065829 35 199 4.3 7.8 0.00 0.60 0.00 81 1018.6
20260507065330 35 199 3.5 6.1 0.00 0.60 0.00 81 1018.5
20260507064811 35 200 4.3 7.0 0.00 0.60 0.00 81 1018.5
20260507064314 35 202 4.3 7.0 0.00 0.60 0.00 80 1018.4
20260507063836 35 203 3.5 6.1 0.00 0.60 0.00 80 1018.5
20260507063315 35 203 4.3 6.1 0.00 0.60 0.00 81 1018.5
20260507062816 35 203 3.5 6.1 0.00 0.60 0.00 82 1018.5
20260507062317 35 203 3.5 6.1 0.00 0.60 0.00 82 1018.5
20260507061820 35 201 2.6 5.2 0.00 0.60 0.00 83 1018.6
20260507061319 35 202 2.6 5.2 0.00 0.60 0.00 83 1018.6
20260507060820 35 202 2.6 5.2 0.00 0.60 0.00 83 1018.6
20260507060323 35 202 2.6 6.1 0.00 0.60 0.00 83 1018.6
20260507055824 35 202 2.6 5.2 0.00 0.60 0.60 83 1018.6
20260507055311 35 202 2.6 5.2 0.00 0.60 0.60 83 1018.6
20260507054814 35 202 2.6 4.3 0.00 0.60 0.60 83 1018.7
20260507054318 35 202 2.6 4.3 0.00 0.60 0.60 83 1018.7
20260507053821 35 202 2.6 5.2 0.00 0.60 0.60 83 1018.8
20260507053325 35 203 3.5 5.2 0.00 0.60 0.60 83 1018.9
20260507052830 35 202 2.6 5.2 0.00 0.60 0.60 83 1018.9
20260507052333 35 203 2.6 6.1 0.00 0.60 0.60 82 1018.9
20260507051816 35 203 2.6 6.1 0.00 0.60 0.60 82 1018.8
20260507051319 35 202 2.6 6.1 0.00 0.60 0.60 83 1018.9
20260507050838 35 202 2.6 6.1 0.00 0.60 0.60 83 1018.8
20260507050321 35 203 3.5 6.1 0.00 0.60 0.60 83 1018.8
20260507045825 35 205 2.6 4.3 0.00 0.61 0.60 83 1018.9
20260507045346 35 205 1.7 7.0 0.00 0.61 0.60 82 1018.9
20260507044829 35 205 3.5 7.0 0.00 0.61 0.60 82 1018.9
20260507044331 35 206 3.5 7.8 0.00 0.61 0.60 82 1018.9
20260507043814 36 201 4.3 7.8 0.00 0.61 0.60 82 1018.8
20260507043317 36 209 4.3 7.0 0.00 0.61 0.60 82 1018.8
20260507042821 36 208 2.6 5.2 0.00 0.61 0.60 82 1018.9
20260507042323 36 207 3.5 5.2 0.00 0.61 0.60 82 1018.9
20260507041828 36 207 1.7 4.3 0.00 0.61 0.60 82 1018.9
20260507041352 36 207 1.7 5.2 0.00 0.61 0.60 82 1019.0
20260507040815 36 207 2.6 5.2 0.00 0.61 0.60 82 1018.9
20260507040318 36 206 2.6 6.1 0.00 0.61 0.60 82 1018.9
20260507035821 36 206 2.6 6.1 0.00 0.61 0.60 82 1018.8
20260507035324 36 205 2.6 5.2 0.00 0.61 0.60 82 1018.8
20260507034827 36 205 3.5 5.2 0.00 0.61 0.60 83 1018.7
20260507034330 35 208 1.7 3.5 0.00 0.61 0.60 83 1018.8
20260507033328 35 207 0.9 3.5 0.00 0.61 0.60 82 1018.7
20260507032830 35 207 0.0 3.5 0.00 0.61 0.60 82 1018.7
20260507032331 35 207 1.7 3.5 0.00 0.61 0.60 82 1018.7
20260507031812 35 207 0.9 1.7 0.00 0.61 0.60 82 1018.8
20260507031315 36 207 0.9 1.7 0.00 0.61 0.60 81 1018.7
20260507030816 36 207 0.0 1.7 0.00 0.61 0.60 80 1018.6
20260507030338 36 207 0.9 3.5 0.00 0.61 0.60 80 1018.7
20260507025819 36 207 0.9 3.5 0.00 0.61 0.60 79 1018.6
20260507025320 36 207 0.9 2.6 0.00 0.61 0.60 79 1018.6
20260507024822 36 207 0.9 2.6 0.00 0.61 0.60 79 1018.6
20260507024325 36 207 0.9 3.5 0.00 0.61 0.60 79 1018.6
20260507023827 36 208 0.9 4.3 0.00 0.61 0.60 78 1018.4
20260507023330 37 209 0.9 4.3 0.00 0.61 0.60 78 1018.4
20260507022851 37 209 0.9 3.5 0.00 0.61 0.60 77 1018.4
20260507022313 37 209 0.0 3.5 0.00 0.61 0.60 77 1018.5
20260507021814 37 209 0.0 5.2 0.00 0.61 0.60 76 1018.5
20260507021337 37 208 2.6 5.2 0.00 0.61 0.60 76 1018.5
20260507020819 37 209 1.7 4.3 0.00 0.61 0.60 75 1018.4
20260507020322 38 209 2.6 5.2 0.00 0.61 0.60 75 1018.4
20260507015823 38 213 2.6 5.2 0.00 0.61 0.60 74 1018.4
20260507015343 38 214 1.7 5.2 0.00 0.61 0.60 73 1018.5
20260507014825 39 215 1.7 4.3 0.00 0.61 0.60 73 1018.6
20260507014329 39 215 2.6 5.2 0.00 0.61 0.60 71 1018.6
20260507013830 39 358 2.6 5.2 0.00 0.61 0.60 70 1018.6
20260507013331 39 358 1.7 4.3 0.00 0.61 0.60 70 1018.7
20260507012814 39 358 1.7 7.0 0.00 0.61 0.60 70 1018.8
20260507012316 40 221 3.5 7.0 0.00 0.61 0.60 70 1018.7
20260507011838 40 358 1.7 4.3 0.00 0.61 0.60 70 1018.7
20260507011340 40 358 1.7 5.2 0.00 0.61 0.60 70 1018.8
20260507010843 40 358 2.6 5.2 0.00 0.61 0.60 68 1018.9
20260507010324 40 190 2.6 5.2 0.00 0.61 0.60 68 1018.9
20260507005841 40 193 2.6 5.2 0.00 0.61 0.60 68 1018.9
20260507005322 40 200 1.7 5.2 0.00 0.61 0.60 69 1018.9
20260507004846 40 200 2.6 6.1 0.00 0.61 0.60 68 1018.8
20260507004326 40 195 2.6 5.2 0.00 0.61 0.60 67 1018.9
20260507003828 40 358 2.6 4.3 0.00 0.61 0.60 67 1019.0
20260507003329 40 358 2.6 5.2 0.00 0.61 0.60 69 1019.0
20260507002812 39 188 2.6 5.2 0.00 0.61 0.60 69 1019.1
20260507002335 39 190 3.5 5.2 0.00 0.61 0.60 69 1019.0
20260507001815 40 358 1.7 5.2 0.00 0.61 0.60 69 1019.1
20260507001335 40 198 2.6 7.0 0.00 0.61 0.60 68 1019.1
20260507000834 40 358 1.7 7.0 0.00 0.61 0.60 69 1019.2
20260507000315 40 358 1.7 3.5 0.00 0.61 0.60 69 1019.1
20260506235816 39 358 2.6 5.2 0.00 0.61 0.60 68 1019.2
20260506235319 40 197 2.6 5.2 0.00 0.61 0.60 70 1019.2
20260506234820 39 188 2.6 6.1 0.01 0.61 0.60 70 1019.1
20260506234322 39 177 1.7 6.1 0.01 0.61 0.60 70 1019.1
20260506233823 39 180 3.5 6.1 0.01 0.61 0.60 71 1019.1
20260506233325 39 184 1.7 7.0 0.01 0.61 0.60 70 1019.2
20260506232825 39 159 2.6 7.0 0.01 0.61 0.60 70 1019.1
20260506232328 39 358 2.6 5.2 0.01 0.61 0.60 70 1019.1
20260506231851 38 358 1.7 4.3 0.01 0.61 0.60 69 1019.3
20260506231312 39 193 1.7 4.3 0.01 0.61 0.60 70 1019.3
20260506230813 38 358 2.6 5.2 0.02 0.61 0.60 71 1019.3
20260506230316 38 358 1.7 5.2 0.02 0.61 0.60 72 1019.3
20260506225817 37 358 1.7 5.2 0.02 0.71 0.60 72 1019.4
20260506225315 38 358 3.5 5.2 0.01 0.70 0.59 72 1019.4
20260506224818 38 358 1.7 4.3 0.02 0.70 0.59 72 1019.4
20260506224320 38 179 1.7 4.3 0.02 0.70 0.59 72 1019.5
20260506223819 38 358 1.7 5.2 0.02 0.70 0.59 75 1019.5
20260506223342 37 358 1.7 5.2 0.03 0.70 0.59 74 1019.7
20260506222824 37 358 0.0 4.3 0.03 0.70 0.59 75 1019.7
20260506222346 37 358 2.6 4.3 0.04 0.70 0.59 76 1019.8
20260506221848 37 358 0.9 2.6 0.04 0.70 0.59 76 1019.9
20260506221328 37 358 0.9 2.6 0.05 0.70 0.59 76 1019.9
20260506220830 37 358 0.9 2.6 0.05 0.69 0.58 75 1020.0
20260506220330 37 358 0.9 3.5 0.05 0.69 0.58 76 1020.1
20260506215811 37 358 0.0 2.6 0.06 0.71 0.58 77 1020.1
20260506215334 36 175 1.7 2.6 0.07 0.71 0.58 78 1020.1
20260506214813 36 358 0.9 3.5 0.07 0.70 0.57 79 1020.1
20260506214314 36 358 0.9 3.5 0.08 0.70 0.57 77 1020.1
20260506213816 36 358 2.6 3.5 0.09 0.70 0.57 77 1020.1
20260506213318 36 358 1.7 3.5 0.09 0.69 0.56 76 1020.2
20260506212823 36 358 1.7 3.5 0.10 0.69 0.56 76 1020.3
20260506212324 36 358 1.7 4.3 0.10 0.68 0.55 77 1020.3
20260506211826 36 358 1.7 4.3 0.11 0.68 0.55 77 1020.3
20260506211327 36 358 2.6 5.2 0.12 0.67 0.54 77 1020.4
20260506210827 36 358 0.9 3.5 0.14 0.66 0.53 79 1020.5
20260506210327 36 122 0.9 3.5 0.15 0.65 0.52 78 1020.6
20260506205827 36 358 1.7 3.5 0.17 0.67 0.52 78 1020.6
20260506205329 36 358 0.9 3.5 0.18 0.66 0.51 77 1020.7
20260506204830 36 358 2.6 3.5 0.20 0.65 0.50 79 1020.7
20260506204332 35 358 0.9 2.6 0.21 0.64 0.49 81 1020.8
20260506203814 35 112 0.9 2.6 0.21 0.63 0.48 80 1020.8
20260506203316 35 112 1.7 5.2 0.21 0.62 0.47 80 1020.8
20260506202818 35 358 3.5 5.2 0.21 0.61 0.46 79 1020.9
20260506202319 35 358 1.7 5.2 0.21 0.60 0.45 80 1020.8
20260506201842 36 358 1.7 5.2 0.20 0.58 0.43 79 1020.9
20260506201321 36 358 0.9 5.2 0.20 0.57 0.42 84 1020.9
20260506200821 35 358 2.6 5.2 0.18 0.54 0.39 83 1020.9
20260506200343 35 110 0.9 5.2 0.17 0.52 0.37 85 1021.0
20260506195823 35 358 2.6 5.2 0.16 0.50 0.35 87 1021.0
20260506195324 35 86 2.6 5.2 0.14 0.47 0.32 88 1021.0
20260506194823 34 42 0.9 3.5 0.13 0.45 0.30 88 1021.0
20260506194346 34 358 0.0 0.0 0.12 0.43 0.28 88 1021.1
20260506193826 34 358 0.0 0.0 0.12 0.42 0.27 88 1021.1
20260506193327 34 358 0.0 0.0 0.11 0.41 0.26 89 1021.2
20260506192828 33 310 0.0 0.0 0.11 0.40 0.25 89 1021.2
20260506192331 33 358 0.0 0.0 0.10 0.39 0.24 89 1021.2
20260506191832 33 358 0.0 0.0 0.10 0.38 0.23 89 1021.3
20260506191313 33 309 0.0 0.0 0.09 0.37 0.22 89 1021.3
20260506190813 33 358 0.0 0.0 0.08 0.36 0.21 89 1021.3
20260506190316 33 358 0.0 0.0 0.08 0.35 0.20 89 1021.3
20260506185331 33 358 0.0 0.0 0.06 0.33 0.18 88 1021.3
20260506184812 33 358 0.0 0.0 0.06 0.32 0.17 88 1021.3
20260506184334 32 308 0.0 0.0 0.05 0.31 0.16 89 1021.4
20260506183814 32 358 0.0 0.0 0.04 0.30 0.15 87 1021.5
20260506183315 32 358 0.0 0.0 0.05 0.30 0.15 88 1021.5
20260506182813 32 309 0.0 0.0 0.04 0.29 0.14 88 1021.6
20260506182329 32 358 0.0 0.0 0.05 0.29 0.14 87 1021.5
20260506181850 32 358 0.0 0.0 0.04 0.28 0.13 87 1021.5
20260506181329 32 358 0.0 0.0 0.04 0.28 0.13 86 1021.5
20260506180831 31 358 0.0 0.0 0.05 0.28 0.13 86 1021.6
20260506180331 31 311 0.0 0.0 0.04 0.27 0.12 86 1021.4
20260506175814 31 311 0.0 0.0 0.04 0.31 0.12 86 1021.4
20260506175317 31 311 0.0 0.0 0.05 0.31 0.12 86 1021.4
20260506174819 31 311 0.0 0.0 0.04 0.30 0.11 86 1021.4
20260506174320 30 312 0.0 0.0 0.05 0.30 0.11 86 1021.3
20260506173821 31 312 0.0 0.0 0.05 0.30 0.11 86 1021.4
20260506173322 31 312 0.0 0.0 0.04 0.29 0.10 86 1021.5
20260506172825 31 312 0.0 0.0 0.05 0.29 0.10 86 1021.4